Regional Weather Roundup
Issued by NWS Wakefield, VA

Home | Current Version | Previous Version | Graphics & Text | Print | Product List | Glossary On
Versions: 1 2 3 4 5 6 7 8 9 10 11 12 13 14 15 16 17 18 19 20 21 22 23 24 25 26 27 28 29 30 31 32 33 34 35 36 37 38 39 40 41 42 43 44 45 46 47 48 49 50
985
ASUS41 KAKQ 022015
RWRAKQ

REGIONAL WEATHER ROUNDUP
NATIONAL WEATHER SERVICE WAKEFIELD VA
300 PM EST FRI DEC 02 2016

Note: "fair" indicates few or no clouds below 12,000 feet with no
significant weather and/or obstructions to visibility. * = Denotes
station may not report precipitation (e.g., rain,snow,etc.),
thunder or fog.

VAZ042-051-052>054-056-022100-
NORTHERN VIRGINIA

CITY           SKY/WX    TMP DP  RH WIND       PRES   REMARKS
WASH NATIONAL  MOSUNNY   52  30  43 N16G25    30.04R
DULLES         MOSUNNY   49  29  46 NW14      30.04R
FORT BELVOIR   SUNNY     53  28  38 NW15      30.02R
QUANTICO       MOSUNNY   54  28  36 NW10      30.03S
FREDERICKSBRG* MOSUNNY   55  32  41 W8        30.02R
STAFFORD*      MOSUNNY   54  31  41 W6        30.06R
WARRENTON      PTSUNNY   56  21  26 W9G16     30.02R
CULPEPER*      CLOUDY    53  31  43 CALM      30.04R
MANASSAS*      PTSUNNY   52  28  40 NW14      30.03R
LEESBURG*      MOSUNNY   46  34  61 NW15      30.06R
WINCHESTER     CLOUDY    41  28  60 W9        30.06R
FRONT ROYAL*   CLOUDY    46  30  53 W9        30.04R
LURAY*         MOCLDY    48  32  53 NW8       30.04S
$$

VAZ048-049-060>072-079>083-022100-
CENTRAL AND SOUTH CENTRAL VIRGINIA

CITY           SKY/WX    TMP DP  RH WIND       PRES   REMARKS
RICHMOND       MOSUNNY   54  29  38 W9        30.03S
CHESTERFIELD*  FAIR      55  25  30 W9        30.05S
PETERSBURG*    SUNNY     54  28  37 W9        30.05S
HANOVER        SUNNY     54  29  38 W13G21    30.05R
TAPPAHANNOCK*  SUNNY     54  25  32 W12       30.04R
QUINTON*       FAIR      54  31  40 W7        30.03R
CHARLOTTSVILLE SUNNY     54  29  38 VRB5      30.03R
GORDONSVILLE*  MOCLDY    52  31  44 SW5       30.03R
ORANGE*          N/A     54  30  40 SW9       30.05R
LOUISA*        SUNNY     57  34  41 NW13      30.02R
BUMPASS*       FAIR      54  31  41 W9        30.03R
FARMVILLE*     SUNNY     56  31  39 SW6       30.04R
CREWE*         FAIR      54  31  42 W9        30.05S
FORT PICKETT*  FAIR      54  22  28 W12       30.06R
CHASE CITY*    FAIR      54  28  37 W8        30.07S
CLARKSVILLE*   FAIR      54  32  43 SW8G16    30.07S
SOUTH HILL*    SUNNY     53  32  44 SW9       30.12R
LAWRENCEVILLE* FAIR      54  29  38 MISG      30.06R
EMPORIA*       SUNNY     54  32  43 SW8       30.08R
$$

VAZ088>098-022100-
SOUTHEAST VIRGINIA

CITY           SKY/WX    TMP DP  RH WIND       PRES   REMARKS
NORFOLK        SUNNY     55  30  38 VRB6      30.03F
VIRGINIA BEACH SUNNY     54  29  38 W8        30.02F
NORFOLK NAVAL  MOSUNNY   55  30  38 W10       30.05S
WEST POINT*    SUNNY     55  29  36 W8        30.05R
SALUDA*        FAIR      54  32  43 W6        30.02S
NEWPORT NEWS   SUNNY     55  31  39 W8        30.04S
LANGLEY AFB    MOSUNNY   55  32  41 W12       30.03S
FORT EUSTIS    SUNNY     57  33  39 W8        30.02R
WILLIAMSBURG*  SUNNY     57  34  41 W9        30.04S
HR EXEC AP*    FAIR      55  30  38 W10       30.03S
FRANKLIN*      SUNNY     55  30  39 W10       30.05S
US460-WAKEFLD  SUNNY     55  31  39 W9G18     30.05R
$$

VAZ020-022-025-037-045-022100-
WEST CENTRAL AND SOUTHWEST VIRGINIA

CITY           SKY/WX    TMP DP  RH WIND       PRES   REMARKS
STAUNTON*      SUNNY     48  29  48 W12G17    30.05R
WAYNESBORO*    FAIR      46  27  46 W7G18     30.04R
HOT SPRINGS VA CLOUDY    32  27  80 W17G23    29.99R WCI  21
LYNCHBURG      SUNNY     51  28  41 W12       30.08R
DANVILLE       SUNNY     55  31  39 W10G17    30.08F
SOUTH BOSTON*  FAIR      55  27  34 W10       30.08S
MARTINSVILLE   SUNNY     54  29  38 NW6       30.11S
ROANOKE        MOSUNNY   50  28  42 NW16      30.11R
BLACKSBURG     PTSUNNY   43  30  59 NW10G21   30.11S
DUBLIN*        SUNNY     47  30  51 W14       30.10S
MARION*        SUNNY     47  27  46 W23G29    30.09F
HILLSVILLE*    SUNNY     44  29  56 NW10G17   30.07S
RICHLANDS*     FAIR      45  27  50 NW13      30.11S
WISE*          SUNNY     46  23  39 W13G23    30.14S
ABINGDON*      SUNNY     49  27  42 W13       30.14S
$$

MDZ021>025-VAZ099-100-022100-
SOUTHERN MARYLAND AND THE DELMARVA PENINSULA

CITY           SKY/WX    TMP DP  RH WIND       PRES   REMARKS
PATUXENT RIVER MOSUNNY   53  28  38 NW14      30.01S
BAY BRIDGE APT MOSUNNY   50  30  46 NW15G22   30.02R
LEONARDTOWN    SUNNY     52  30  43 W13       30.03S
DOVER          SUNNY     50  31  47 W17       29.97R
GEORGETOWN     SUNNY     51  27  39 W9G21     29.99R
EASTON         SUNNY     52  28  40 NW17G26   30.04R
CAMBRIDGE      SUNNY     50  30  46 NW12      30.00S
SALISBURY      SUNNY     51  29  42 W14       29.99S
OCEAN CITY     SUNNY     52  29  41 NW10G20   29.99R
WALLOPS ISLAND SUNNY     51  31  46 W16G23    30.01S
ACCOMACK*      SUNNY     52  32  46 W10G17    30.02S
$$

NCZ012>017-030>032-022100-
NORTH CENTRAL AND EASTERN NORTH CAROLINA

CITY           SKY/WX    TMP DP  RH WIND       PRES   REMARKS
ROANOKE RAPIDS FAIR      55  32  41 W9        30.06S
RALEIGH        SUNNY     73  28  18 W9        30.09S
ELIZABETH CITY SUNNY     55  32  41 W8        30.05S
AHOSKIE*       SUNNY     55  32  42 CALM      30.06S
EDENTON*       SUNNY     56  33  42 CALM      30.06S
CURRITUCK*     SUNNY     55  31  40 W9        30.05S
KILL DEVIL HLS SUNNY     52  37  57 CALM      30.04S
MANTEO         SUNNY     52  33  47 NW7       30.06S
CAPE HATTERAS  SUNNY     55  38  52 NW6       30.06R
TARBORO*       NOT AVBL
GOLDSBORO      SUNNY     58  28  31 W14       30.07R
WASHINGTON     SUNNY     57  32  39 W9        30.07S
GREENVILLE     SUNNY     55  32  41 W7        30.09S
NEW BERN       SUNNY     57  32  38 NW9       30.09R
WILMINGTON     SUNNY     59  32  36 NW9       30.10R
$$

VAZ048-022100-
ELSEWHERE

CITY           SKY/WX    TMP DP  RH WIND       PRES   REMARKS
HARRISBURG PA  PTSUNNY   45  29  53 W13G23    29.99S
BALTIMORE      MOSUNNY   48  29  47 W21G30    30.01S
ANNAPOLIS      SUNNY     52  30  43 NW14G23   30.01S
ANDREWS AFB    SUNNY     51  29  42 NW15      30.01R
PHILADELPHIA   MOSUNNY   51  27  39 W17G24    29.95R
HENDERSON NC   SUNNY     51  27  40 W8        30.08S
GREENSBORO     MOSUNNY   56  29  35 W14       30.08F
ROCKY MOUNT    SUNNY     57  31  37 NW13      30.08R
$$

VAZ100-022100-
MARINE

STATION/POSITION TIME  TEMP    WIND        PRES    WAVE   SWELL
                       AIR SEA DIR/SP/G            HT/PER HT/PER
                 (UTC) (F)     (DEG/KT/KT) (MB)    (FT/S) (FT/S)
BRANDYWINE LGT   1948   49     300/ 17/ 19   N/A
CAPE MAY NJ      1948   49 49  300/ 15/ 19 1014.6R
LEWES DE         1942   50 51  300/ 19/ 23 1014.9R
OCEAN-CITY-INLET 1942   51 52  300/ 13/ 18 1015.7R
WACHAPREAGUE VA  1942   51 54  260/ 10/ 12 1016.6F
THOMAS POINT MD  1900   49 51  300/ 14/ 15   N/A
GOOSES REEF MD   1950   53     270/ 10/ 12 1016.8R
COVE POINT MD    1942   51     300/ 10/ 15 1016.7F
SOLOMONS ISLAND  1942   53 53  270/ 11/ 14   N/A
BISHOPS HEAD MD  1942   50 51  280/ 11/ 13 1016.6F
PINEY POINT MD   1942          330/ 11/ 12   N/A
POTOMAC MD       1950   51     320/ 12/ 16 1015.5F
CAMBRIDGE MD     1942   50 49  310/ 10/ 13 1015.3S
LEWISETTA VA     1942   52 53  300/  8/ 10 1016.0F
RAPPAHANNOCK LGT 1942          290/  8/  9 1017.1F
STINGRAY PT      1950   53     300/ 12/ 14 1016.7F
YORK RVR RNG VA  1942   53     270/ 13/ 15 1016.1F
YORKTOWN VA      1942   53 54  250/ 12/ 16 1016.3F
JAMESTOWN VA     1950   54     250/ 12/ 16   N/A
DOMINION TERM VA 1942   53     290/  9/ 12 1016.9F
KIPTOPEKE VA     1942      54  290/  8/  9   N/A
CHES BAY BRIDGE  1942   52 55  270/ 11/ 13 1016.6F
CAPE HENRY VA    1942   53     270/ 11/ 14   N/A
WILLOUBY STN VA  1942   53     250/ 11/ 13 1017.5F
S CRANEY ISL VA  1942   55     250/  6/ 11 1016.5F
CAPE HENRY BUOY  1942      56                N/A     2/ 7
1ST LANDING BUOY 1950   53                 1016.8F
CAPE CHARLES BUO 1956      57                N/A     2/ 2
OFFSHORE WE BUOY 1951      57                N/A     3/ 8
64NM E OF VA BCH 1850   51 60  310/ 14/ 17 1016.7    4/ 6   2/ 6
DUCK PIER NC     1942   51 57  240/ 11/ 14 1017.0S
44100 DUCK FRF   1935      57                N/A     3/ 6
OREGON INLET NC  1942   52 59  310/ 10/ 12 1017.5F
HATTERAS NC      1942   53 63  310/ 10/ 12 1017.6R
DIAMOND SHLS NC  1850   55 77  340/ 10/ 16 1017.6    4/ 7   3/ 7
CAPE LOOKOUT NC  1900   55     330/  6/  7 1017.9F
$$




USA.gov is the U.S. government's official web portal to all federal, state and local government web resources and services.